Orbital Elements at Epoch 2459000.5 (2020-May-31.0) TDB
Reference: JPL 18 (heliocentric ecliptic J2000)
Element | Value | Uncertainty (1-sigma) | Units |
e | .1096812815369086 | 5.843e-08 | |
a | 2.229518382769525 | 9.4014e-09 | au |
q | 1.984981949337268 | 1.3214e-07 | au |
i | 3.16984313149659 | 4.4353e-06 | deg |
node | 73.27042364848946 | 8.7782e-05 | deg |
peri | 165.7392549122937 | 9.0529e-05 | deg |
M | 310.3612988809859 | 2.4481e-05 | deg |
tp | 2459168.161335551612 (2020-Nov-14.66133555) | 8.2948e-05 | TDB |
period | 1215.948029217474 3.33 | 7.6911e-06 2.106e-08 | d yr |
n | .2960652851517664 | 1.8727e-09 | deg/d |
Q | 2.474054816201782 | 1.0433e-08 | au |
|
| | Orbit Determination Parameters
Additional Information
|